Regional Weather Roundup
Issued by NWS Mobile, AL

Home | Current Version | Previous Version | Text Only | Print | Product List | Glossary On
Versions: 1 2 3 4 5 6 7 8 9 10 11 12 13 14 15 16 17 18 19 20 21 22 23 24 25 26 27 28 29 30 31 32 33 34 35 36 37 38 39 40 41 42 43 44 45 46 47 48 49 50
000
ASUS44 KMOB 041901
RWRMOB
REGIONAL WEATHER ROUNDUP
NATIONAL WEATHER SERVICE MOBILE AL
100 PM CST WED MAR 04 2015

ALZ061>064-042000-
COASTAL ALABAMA


CITY           SKY/WX    TMP DP  RH WIND       PRES   REMARKS
MOBILE REG APT PTSUNNY   77  66  68 S17       29.99F
BROOKLEY FIELD MOSUNNY   74  67  78 S14G23    30.00F
GULF SHORES    MOCLDY    75  69  80 S14       30.01F

$$

ALZ051>060-042000-
INTERIOR SOUTHWEST AND SOUTH CENTRAL ALABAMA


CITY           SKY/WX    TMP DP  RH WIND       PRES   REMARKS
ANDALUSIA/OPP  CLOUDY    75  66  73 SW7       30.02F
EVERGREEN      PTSUNNY   80  64  58 S12G25    29.98F
FLORALA        CLOUDY    74  65  73 S15G23    30.03F
GREENVILLE     MOCLDY    78  62  57 S15G22    29.97F

$$

FLZ001>006-042000-
WESTERN FLORIDA PANHANDLE


CITY           SKY/WX    TMP DP  RH WIND       PRES   REMARKS
CRESTVIEW      CLOUDY    74  67  78 S16G23    30.04F
DESTIN         CLOUDY    69  65  86 SE12      30.03F
DUKE FIELD     PTSUNNY   73  67  82 S13       30.02F
MARY ESTHER    NOT AVBL
MILTON         MOCLDY    78  67  68 S18G29    30.01F
PENSACOLA      PTSUNNY   75  67  76 S16       30.01F
NAS PENSACOLA  CLOUDY    73  66  78 S12G22    30.01F
VALPARAISO     NOT AVBL

$$

...MARINE OBSERVATIONS...

STATION/POSITION TIME  SKY/WX   TEMP    WIND        PRES    VSBY
                                AIR SEA DIR/SP/G
                 (UTC)          (F)     (DEG/KT/KT) (MB)    (MI)
PASCAGOULA       1819            67     160/ 12/ 14 1015.8
GRAND BAY        1800            65     160/ 11     1017.0S
PETIT BOIS ISL   1819            68     150/ 10/ 12 1016.3
E DAUPHIN ISLAND 1757            64     150/ 12/ 13 1016.0F
USCG MOBILE BAY  1819            68 55  160/  9/ 13 1015.3
STATE DOCKS      1819            68 49              1016.1
MEAHER PARK      1800            67     170/ 15     1015.6F
FORT MORGAN      1819            67     180/ 19/ 20 1015.8
12 S ORANGE BCH  1800            69 66  150/ 10/ 10 1016.4F
WVE H/P(F/S)=  2/ 6

PENSACOLA BAY    1819            75 56  180/  9/ 12 1017.2
64 S DAUPHIN ISL 1850            73 72  160/ 14/ 16 1015.8F
WVE H/P(F/S)=  4/ 7

MID GULF/42001   1900            78 80  160/ 19/ 23 1014.9F
WVE H/P(F/S)=  4/ 4

EAST GULF/42003  1800            77 77  150/ 17/ 19 1018.0F
WVE H/P(F/S)=  5/ 7


$$

...NEARBY LOCATIONS

CITY           SKY/WX    TMP DP  RH WIND       PRES   REMARKS
GULFPORT       LGT RAIN  69  67  93 S9        29.97F FOG
BILOXI         NOT AVBL
PASCAGOULA     CLOUDY    76  69  79 S12G28    29.98F
HATTIESBURG    MOSUNNY   78  67  68 S20G30    29.95F
LAUREL         MOSUNNY   79  66  65 S12G20    29.94F
MERIDIAN       NOT AVBL
MERIDIAN NAS   PTSUNNY   77  64  64 S14G20    29.93F
MONTGOMERY       N/A     79  61  53 SW12      29.97F
MAXWELL AFB    NOT AVBL
TROY           PTSUNNY   74  64  71 S10       30.02F
FORT RUCKER    CLOUDY    75  64  68 S12       30.01F
DALEVILLE      NOT AVBL
DOTHAN         CLOUDY    75  63  66 SW13G21   30.06F

$$

...OTHER SURROUNDING LOCATIONS...

CITY           SKY/WX    TMP DP  RH WIND       PRES   REMARKS
BIRMINGHAM     PTSUNNY   74  62  66 S20       29.94F
TUSCALOOSA     MOSUNNY   78  64  61 S20G26    29.90F
COLUMBUS GA    CLOUDY    70  62  76 S16G23    30.02F
PANAMA CITY    NOT AVBL
TALLAHASSEE    PTSUNNY   80  64  58 S16G23    30.07F
BATON ROUGE    MOSUNNY   83  65  54 S20       29.92F
NEW ORLEANS    PTSUNNY   81  66  60 S18       29.94F
SLIDELL        CLOUDY    77  69  76 S12       29.95F
JACKSON        PTSUNNY   80  63  55 SW20      29.89F
MCCOMB         PTSUNNY   78  64  61 S14G24    29.93F

$$

...SURROUNDING MARINE OBSERVATIONS...

STATION/POSITION TIME  SKY/WX   TEMP    WIND        PRES    VSBY
                                AIR SEA DIR/SP/G
                 (UTC)          (F)     (DEG/KT/KT) (MB)    (MI)
WAVELAND         1819            67 60  190/  6/  7 1015.6
PASCAGOULA RGN A 1819            72     160/ 15/ 22 1015.5
PASCAGOULA PORT  1800               58                N/A
GRAND ISLE       1819            73 65  170/  7/ 11 1015.9
SOUTHWEST PASS   1757            69     160/ 16/ 17 1015.8F
PILOT STATION E  1819            72 46  160/ 10/ 12 1015.9
SHELL BEACH      1819            73 60  180/  8/  9 1015.5
PANAMA CITY      1819            68 61  170/ 16/ 20 1017.6
APALACHICOLA     1819            67 60  170/  8/  9 1018.8
TYNDALL TOWER C  1800            66     140/ 13/ 13 1019.1F
S APLCHCLA/42036 1800            70 69  150/  8/  8 1019.7F
WVE H/P(F/S)=  2/ 5


$$



USA.gov is the U.S. government's official web portal to all federal, state and local government web resources and services.